Tracking 29781 objects as of 14-Oct-2024
HD Live streaming from Space Station
objects crossing your sky now

NADEZHDA 2

Track NADEZHDA 2 now!
10-day predictions
NADEZHDA 2 is classified as:


NORAD ID: 20508
Int'l Code: 1990-017A
Perigee: 958.4 km
Apogee: 1,023.0 km
Inclination: 83.0 °
Period: 104.8 minutes
Semi major axis: 7361 km
RCS: 2.5733 m2 (large)
Launch date: February 27, 1990
Source: Commonwealth of Independent States (former USSR) (CIS)
Launch site: PLESETSK MISSILE AND SPACE COMPLEX (PKMTR)
Your satellite tracking list
Your tracking list is empty




NASA's NSSDC Master Catalog

Two Line Element Set (TLE):
1 20508U 90017A   24288.59373784  .00000136  00000-0  12772-3 0  9994
2 20508  82.9578 165.1151 0043894 343.9600  26.2853 13.74461692736509
Source of the keplerian elements: AFSPC